Cucuta, Colombia

9:42 PM COT on February 25, 2017 (GMT -0500)
Cucuta

Weather History for 80097 - August, 2014

Change the Weather History Date:

Saturday, August 30, 2014

  Actual Average Record
Temperature  
Mean Temperature 88 °F -  
Max Temperature 99 °F 93 °F - ()
Min Temperature 77 °F 73 °F - ()
Cooling Degree Days 23    
Growing Degree Days 38 (Base 50)    
Moisture  
Dew Point 62 °F    
Average Humidity 38    
Maximum Humidity 61    
Minimum Humidity 19    
Precipitation  
Precipitation 0.00 in 0.09 in - ()
Sea Level Pressure  
Sea Level Pressure 29.93 in    
Wind  
Wind Speed 11 mph ()    
Max Wind Speed 23 mph    
Max Gust Speed -    
Visibility 7.4 miles    
Events      
T = Trace of Precipitation, MM = Missing Value Source: Averaged Metar Reports

Daily Weather History Graph

Daily Weather History Graph

Search for Another Location

Airport or City:

Trip Planner

Search our weather history database for the weather conditions in past years. The results will help you decide how hot, cold, wet, or windy it might be!

Date:

Astronomy

Aug. 30, 2014 Rise Set
Actual Time 5:42 AM COT 5:58 PM COT
Civil Twilight 5:21 AM COT 6:20 PM COT
Nautical Twilight 4:56 AM COT 6:44 PM COT
Astronomical Twilight 4:31 AM COT 7:09 PM COT
Moon 9:26 AM COT (8/30) 9:35 PM COT (8/30)
Length of Visible Light 12h 58m
Length of Day
12h 16m
Waxing Crescent, 23% of the Moon is Illuminated
Aug 30
Waxing Crescent
Sep 2
First Quarter
Sep 8
Full
Sep 15
Last Quarter
Sep 24
New

Hourly Weather History & Observations

Time (COT) Temp. Heat Index Dew Point Humidity Pressure Visibility Wind Dir Wind Speed Gust Speed Precip Events Conditions
5:00 AM 78.8 °F - 64.4 °F 61% 29.98 in 6.2 mi WSW 4.6 mph - N/A   Scattered Clouds
6:00 AM 78.8 °F - 64.4 °F 61% 30.00 in 6.2 mi WSW 6.9 mph - N/A   Scattered Clouds
7:00 AM 82 °F - 65 °F 47% 29.89 in 12 mi SW 11.2 mph - -   Scattered Clouds
7:00 AM 82.4 °F 83.9 °F 64.4 °F 54% 30.00 in 6.2 mi SW 11.5 mph - N/A   Scattered Clouds
8:00 AM 84.2 °F 86.6 °F 66.2 °F 55% 30.01 in 6.2 mi South 16.1 mph - N/A   Scattered Clouds
9:00 AM 91.4 °F 91.4 °F 60.8 °F 36% 30.01 in 6.2 mi SSE 23.0 mph - N/A   Scattered Clouds
10:00 AM 95.0 °F 94.4 °F 59.0 °F 30% 29.99 in 6.2 mi SSE 16.1 mph - N/A   Scattered Clouds
11:00 AM 95.0 °F 94.4 °F 59.0 °F 30% 29.98 in 6.2 mi SE 23.0 mph - N/A   Scattered Clouds
12:00 PM 98.6 °F 98.5 °F 59.0 °F 27% 29.95 in 6.2 mi SE 23.0 mph - N/A   Scattered Clouds
1:00 PM 98 °F - 60 °F 19% 29.80 in 12 mi SE 22.4 mph - -   Scattered Clouds
1:00 PM 98.6 °F 98.5 °F 59.0 °F 27% 29.92 in 6.2 mi SE 23.0 mph - N/A   Partly Cloudy
2:00 PM 98.6 °F 97.2 °F 55.4 °F 24% 29.89 in 6.2 mi SE 20.7 mph - N/A   Partly Cloudy
3:00 PM 96.8 °F 96.2 °F 59.0 °F 28% 29.88 in 6.2 mi East 16.1 mph - N/A   Partly Cloudy
4:00 PM 95 °F - 59 °F 20% 29.75 in 12 mi East 11.2 mph - -   Partly Cloudy
4:00 PM 95.0 °F 94.4 °F 59.0 °F 30% 29.88 in 6.2 mi East 11.5 mph - N/A   Scattered Clouds
5:00 PM 93.2 °F 92.6 °F 59.0 °F 32% 29.89 in 6.2 mi East 4.6 mph - N/A   Scattered Clouds
6:00 PM 91.4 °F 92.1 °F 62.6 °F 38% 29.92 in 6.2 mi Variable 2.3 mph - N/A   Scattered Clouds
7:00 PM 89 °F - 65 °F 34% 29.82 in 11 mi SSE 11.2 mph - -   Partly Cloudy
8:00 PM 87.8 °F 89.4 °F 64.4 °F 46% 29.96 in 6.2 mi South 9.2 mph - N/A   Scattered Clouds
9:00 PM 87.8 °F 89.4 °F 64.4 °F 46% 29.96 in 6.2 mi SSE 9.2 mph - N/A   Scattered Clouds
10:00 PM 83 °F - 63 °F 41% 29.84 in 11 mi South 11.2 mph - -   Partly Cloudy
10:00 PM 84.2 °F 85.0 °F 62.6 °F 48% 29.99 in 6.2 mi South 11.5 mph - N/A   Scattered Clouds
11:00 PM 84.2 °F 85.0 °F 62.6 °F 48% 29.98 in 6.2 mi South 20.7 mph - N/A   Scattered Clouds